Location: Monrovia
(34.7865°N, 86.7139°W)
Time: 19:57:38
(UTC+00:00)

Cosmos 2278 Rocket - Pass Details

Date: 14 July 2020
Orbit: 841 x 845 km, 71.0° (Epoch: 08 August)

Event Time Altitude Azimuth Distance (km) Brightness Sun altitude
Rises 03:39:40 0° 328° (NNW) 3,406 6.7 -25.4°
Reaches altitude 10° 03:42:18 10° 320° (NW) 2,467 5.6 -25.7°
Maximum altitude 03:47:22 35° 256° (WSW) 1,338 3.3 -26.2°
Enters shadow 03:48:47 30° 227° (SW) 1,456 3.3 -26.4°
